Change the Weather History Date:

Saturday, November 16, 2013

  Actual Average (KSOW) Record (KSOW)
Temperature  
Mean Temperature 43 °F -  
Max Temperature 48 °F 53 °F 75 °F (1967)
Min Temperature 38 °F 32 °F 12 °F (1970)
Degree Days  
Heating Degree Days 22    
Moisture  
Dew Point 35 °F    
Average Humidity 66    
Maximum Humidity 89    
Minimum Humidity 35    
Precipitation  
Precipitation 0.00 in - - ()
Sea Level Pressure  
Sea Level Pressure 29.70 in    
Wind  
Wind Speed 11 mph (WSW)    
Max Wind Speed 26 mph    
Max Gust Speed 37 mph    
Visibility 10 miles    
Events      
Averages and records for this station are not official NWS values.
T = Trace of Precipitation, MM = Missing Value Source: NWS Daily Summary

Daily Weather History Graph

Daily Weather History Graph

Search for Another Location

Airport or City:

Trip Planner

Search our weather history database for the weather conditions in past years. The results will help you decide how hot, cold, wet, or windy it might be!

Date:

Astronomy

Nov. 16, 2013 Rise Set
Actual Time 6:52 AM MST 5:12 PM MST
Civil Twilight 6:25 AM MST 5:38 PM MST
Nautical Twilight 5:55 AM MST 6:09 PM MST
Astronomical Twilight 5:25 AM MST 6:39 PM MST
Moon 4:48 PM MST (11/16) 5:53 AM MST (11/16)
Length of Visible Light 11h 13m
Length of Day
10h 19m
Waxing Gibbous, 99% of the Moon is Illuminated
Nov 16
Waxing Gibbous
Nov 17
Full
Nov 25
Last Quarter
Dec 2
New
Dec 9
First Quarter

Hourly Weather History & Observations

Time (MST) Temp. Windchill Dew Point Humidity Pressure Visibility Wind Dir Wind Speed Gust Speed Precip Events Conditions
12:54 AM 46.0 °F 41.0 °F 39.9 °F 79% 29.62 in 10.0 mi SSW 10.4 mph - 0.00 in   Clear
1:54 AM 44.1 °F - 39.0 °F 82% 29.62 in 10.0 mi Calm Calm - N/A   Partly Cloudy
2:54 AM 41.0 °F 39.0 °F 37.0 °F 86% 29.64 in 10.0 mi North 3.5 mph - N/A   Clear
3:54 AM 39.9 °F 37.8 °F 37.0 °F 89% 29.64 in 10.0 mi NNW 3.5 mph - N/A   Partly Cloudy
4:54 AM 39.9 °F - 37.0 °F 89% 29.67 in 10.0 mi Calm Calm - N/A   Partly Cloudy
5:54 AM 43.0 °F 36.8 °F 37.0 °F 80% 29.68 in 10.0 mi SW 11.5 mph - N/A   Clear
6:54 AM 41.0 °F 37.1 °F 37.0 °F 86% 29.71 in 10.0 mi SW 5.8 mph - N/A   Clear
7:54 AM 44.1 °F 41.5 °F 37.9 °F 79% 29.70 in 10.0 mi SW 4.6 mph - N/A   Clear
8:54 AM 48.0 °F - 39.0 °F 71% 29.70 in 10.0 mi West 8.1 mph - N/A   Clear
9:54 AM 52.0 °F - 37.0 °F 57% 29.71 in 10.0 mi WSW 17.3 mph 33.4 mph N/A   Scattered Clouds
10:54 AM 53.1 °F - 36.0 °F 52% 29.70 in 10.0 mi WSW 20.7 mph 31.1 mph N/A   Mostly Cloudy
11:54 AM 55.0 °F - 35.1 °F 47% 29.68 in 10.0 mi SW 26.5 mph 33.4 mph N/A   Scattered Clouds
12:54 PM 55.0 °F - 34.0 °F 45% 29.65 in 10.0 mi SW 24.2 mph 36.8 mph N/A   Clear
1:54 PM 55.9 °F - 33.1 °F 42% 29.63 in 10.0 mi WSW 20.7 mph 33.4 mph N/A   Partly Cloudy
2:54 PM 55.9 °F - 30.0 °F 37% 29.62 in 10.0 mi SW 23.0 mph 33.4 mph N/A   Clear
3:54 PM 55.0 °F - 28.0 °F 35% 29.63 in 10.0 mi SW 19.6 mph 35.7 mph N/A   Clear
4:54 PM 53.1 °F - 27.0 °F 37% 29.68 in 10.0 mi WSW 16.1 mph 26.5 mph N/A   Clear
5:54 PM 48.9 °F - 30.0 °F 48% 29.73 in 10.0 mi WSW 8.1 mph - N/A   Clear
6:54 PM 46.9 °F - 30.9 °F 54% 29.76 in 10.0 mi WSW 12.7 mph - N/A   Clear
7:54 PM 43.0 °F 37.7 °F 33.1 °F 68% 29.78 in 10.0 mi West 9.2 mph - N/A   Clear
8:54 PM 43.0 °F 38.8 °F 35.1 °F 74% 29.80 in 10.0 mi WNW 6.9 mph - N/A   Clear
9:54 PM 39.0 °F 31.8 °F 33.1 °F 79% 29.80 in 10.0 mi West 11.5 mph - N/A   Clear
10:54 PM 41.0 °F 34.3 °F 35.1 °F 79% 29.81 in 10.0 mi WNW 11.5 mph - N/A   Clear
11:54 PM 39.0 °F 31.8 °F 33.1 °F 79% 29.83 in 10.0 mi WNW 11.5 mph - N/A   Clear